Location: Zagreb
(45.8000°N, 16.0000°E)
Time: 07:59:58
(UTC+02:00)

Courier 1B Rocket - Pass Details

Date: 11 August 2022
Orbit: 920 x 1202 km, 28.2° (Epoch: 25 September)

Event Time Altitude Azimuth Distance (km) Brightness Sun altitude
Rises 20:16:54 0° 243° (WSW) 3,613 8.6 -1.8°
Reaches altitude 10° 20:20:43 10° 221° (SW) 2,711 7.6 -2.4°
Maximum altitude 20:24:13 15° 188° (S) 2,408 6.9 -3.0°
Drops below altitude 10° 20:27:50 10° 155° (SSE) 2,812 7.0 -3.5°
Enters shadow 20:31:04 - 137° (SE) 3,588 7.4 -4.0°
Sets 20:31:55 0° 134° (SE) 3,829 - -4.2°
